Wind_Speed
33 33 33 33 33 33 33 33 33 33 33 34 34 34 34 34 34 34 34 34 33 33 33 33 34 34 34 34 34 33 32 32 31 31 32 33 32 30 30 31 31 33 34
33 33 33 33 33 33 33 33 33 33 33 33 33 33 33 33 33 33 33 32 32 32 32 33 33 33 33 33 32 31 30 31 31 31 31 31 30 29 29 30 31 31 32
33 33 32 33 33 33 33 33 33 33 33 32 32 32 32 32 32 32 32 31 31 31 31 31 31 31 31 31 30 30 30 30 29 29 29 28 28 27 28 29 30 31 31
32 32 32 32 33 32 33 33 32 31 30 30 31 31 32 32 31 31 31 31 30 30 30 29 30 29 29 29 29 29 29 29 28 28 28 27 27 26 27 28 28 29 30
32 31 31 31 31 31 31 31 30 29 29 29 30 30 31 31 31 31 30 30 29 29 29 29 29 29 28 29 28 28 28 28 28 28 27 26 25 24 26 27 28 27 28
31 31 31 31 30 30 30 30 29 29 29 29 29 30 30 31 30 30 30 29 29 28 28 28 29 29 28 28 28 27 28 28 27 27 25 24 23 24 26 26 26 26 26
30 30 30 30 29 29 28 28 27 28 28 27 27 28 28 28 28 28 29 28 28 28 28 28 28 28 28 28 28 28 28 27 25 24 23 22 22 24 24 24 24 23 24
29 29 28 28 28 27 27 27 27 26 27 27 27 27 26 26 27 27 27 27 28 27 27 27 28 27 27 28 28 27 25 24 24 23 22 22 22 22 23 23 23 23 23
29 28 27 27 26 26 26 26 26 26 26 26 26 26 25 25 26 26 26 27 27 27 27 27 28 27 27 27 26 24 23 22 22 21 20 21 21 22 23 23 22 22 23
28 28 27 26 25 25 25 25 25 25 25 25 25 25 25 25 25 25 25 26 26 26 26 27 26 26 25 24 23 22 21 21 20 20 20 21 21 21 22 22 22 23 24
28 28 27 26 26 25 25 25 25 25 25 26 25 25 25 24 24 24 25 25 25 25 25 24 24 23 22 22 22 20 20 20 19 19 20 20 20 21 22 22 23 24 25
28 27 26 26 26 25 25 25 25 25 25 25 25 24 23 23 23 24 24 24 23 23 23 22 22 21 21 21 20 19 19 19 18 19 19 19 19 20 22 23 24 25 25
28 27 26 26 25 25 24 25 25 25 24 24 23 23 23 23 23 23 23 23 23 23 23 22 21 20 19 20 20 19 19 18 19 19 19 19 20 21 22 23 24 25 25
28 27 26 25 25 24 24 24 25 24 23 23 22 22 22 22 22 22 22 22 22 23 22 20 20 19 19 20 19 18 18 18 19 19 19 20 21 22 24 25 25 25 25
28 27 26 25 25 24 24 24 24 24 23 22 22 21 21 21 22 22 22 22 22 21 20 20 20 19 19 19 18 18 18 18 18 19 20 21 22 23 25 26 26 26 24
28 27 26 25 25 24 24 23 23 22 22 22 22 22 22 22 22 22 22 21 20 20 19 19 20 20 19 18 18 17 17 18 18 19 21 22 23 24 25 26 25 25 23
27 27 27 27 25 24 24 23 22 22 21 21 21 21 21 21 21 21 21 21 21 20 20 19 19 19 18 17 17 17 17 18 19 20 21 22 23 25 25 25 25 23 22
26 26 27 27 27 26 25 24 22 22 21 20 20 21 21 22 21 21 20 21 21 20 19 19 18 17 17 17 18 18 18 19 19 20 21 23 24 25 25 25 23 22 21
25 25 25 26 26 26 26 25 23 22 21 21 21 21 22 22 23 22 21 20 19 18 18 18 17 17 18 18 19 19 19 19 20 21 22 24 25 26 26 25 23 22 21
24 24 24 25 25 25 24 24 24 22 22 22 22 22 23 23 23 21 20 19 18 18 18 18 19 19 19 19 19 20 20 20 21 22 23 25 26 26 26 25 23 21 20
23 24 24 24 24 24 24 24 23 23 23 23 23 23 22 22 21 20 19 18 18 18 19 19 20 20 20 20 20 21 21 21 22 23 24 25 26 26 25 24 22 20 19
23 23 23 24 23 23 23 23 23 23 23 24 23 22 21 21 20 21 20 19 19 20 20 20 20 20 21 21 22 22 23 23 24 24 25 25 26 25 24 22 20 19 18
22 23 23 23 22 22 23 23 23 23 23 23 22 22 21 21 21 21 21 21 21 22 22 22 22 22 22 23 23 23 23 24 24 25 26 26 25 23 21 19 18 17 16
22 22 22 22 22 22 22 22 22 22 22 22 22 21 21 21 22 22 22 23 23 23 23 23 23 23 24 24 24 24 24 24 25 25 25 24 22 20 19 18 17 16 15
23 23 22 22 22 22 22 22 21 21 21 21 22 21 21 22 22 22 23 23 23 24 24 23 23 23 24 24 24 24 25 25 25 24 23 21 19 19 18 17 17 16 15
23 23 23 23 23 22 22 22 22 21 22 22 22 22 22 22 22 23 23 23 23 23 23 23 23 23 23 24 24 25 25 24 24 23 21 20 19 19 19 18 17 16 14
Wind_Direction
260 262 264 266 268 270 272 275 277 278 278 278 279 280 282 283 284 286 288 289 290 290 291 293 293 294 293 293 294 294 293 293 292 292 290 291 291 288 285 286 286 287 288
260 262 264 265 268 270 272 275 277 278 278 277 278 279 281 282 284 286 287 288 289 290 291 292 294 295 294 294 294 293 293 293 293 293 292 292 291 290 289 290 289 292 292
259 261 263 265 267 270 272 274 276 277 277 277 277 279 281 282 284 285 287 288 289 290 291 293 294 295 295 295 295 294 293 294 294 294 294 294 291 290 290 290 292 294 293
259 261 264 266 268 269 272 274 275 275 276 276 277 278 280 281 283 285 286 287 288 290 291 292 292 294 295 296 296 295 294 293 294 295 295 293 291 290 290 290 291 294 296
258 261 263 265 268 270 272 273 273 274 275 277 278 279 280 281 282 284 284 286 287 289 290 291 292 294 295 296 296 295 294 293 295 294 294 293 290 292 292 291 291 294 298
259 261 263 265 267 269 271 271 272 273 275 279 279 279 280 281 282 283 283 285 286 288 289 289 291 293 294 295 297 296 296 295 294 294 294 292 291 293 295 296 295 297 298
259 261 262 264 267 269 271 270 270 273 275 277 280 281 281 281 281 281 282 284 286 288 289 290 291 292 292 293 295 296 296 296 294 293 291 291 294 293 295 297 298 302 304
258 260 262 263 265 267 269 269 271 274 275 277 280 282 281 281 281 281 283 284 286 288 289 289 290 292 292 292 293 294 295 295 292 292 290 292 295 296 298 302 303 304 307
256 258 260 262 264 266 268 268 271 273 275 279 281 283 282 281 281 282 283 285 287 289 289 289 290 291 293 293 292 292 292 293 293 293 292 294 297 301 303 303 305 308 310
255 257 259 261 263 265 266 267 270 274 276 279 281 281 282 279 280 282 285 288 289 289 289 289 291 292 292 292 292 292 291 293 293 293 293 295 298 302 305 305 306 309 311
254 256 258 259 262 265 265 266 269 273 276 279 281 281 280 281 282 283 286 289 290 290 291 291 292 293 293 294 293 291 291 292 293 292 294 296 297 302 306 307 309 311 312
252 255 256 257 260 263 266 266 267 271 276 279 280 280 280 283 285 285 286 288 290 291 292 292 291 291 294 292 292 291 291 291 291 294 297 299 301 304 308 309 310 311 311
249 252 254 256 259 261 264 267 269 272 275 278 279 279 281 283 287 286 285 286 287 290 291 290 289 289 291 292 293 293 291 290 292 295 297 301 304 307 310 310 311 311 309
247 248 251 254 257 260 264 268 270 272 274 276 276 277 280 281 283 284 284 285 287 288 288 287 287 288 290 292 294 293 291 291 291 293 297 301 303 306 308 309 311 311 310
246 246 248 250 254 259 263 267 269 270 271 274 274 274 276 278 280 282 285 284 286 286 285 288 290 291 291 291 290 289 288 288 291 296 299 302 304 308 309 310 310 310 310
246 246 247 250 253 257 261 265 267 270 272 272 272 274 275 276 279 281 283 283 283 282 283 287 289 289 288 288 288 290 290 290 293 298 301 303 306 308 309 310 311 310 309
246 247 250 251 253 257 260 263 266 269 273 274 273 274 274 274 276 279 279 282 282 281 284 285 286 285 285 286 288 291 292 292 294 297 301 304 306 308 309 310 310 309 308
245 248 251 252 253 256 258 261 265 268 270 273 274 274 273 272 274 277 278 282 282 281 281 280 280 280 283 286 289 291 293 295 297 299 301 304 307 310 310 311 310 309 308
245 247 249 250 252 254 256 259 262 266 269 271 275 276 275 273 272 274 275 278 280 279 278 276 276 280 284 287 289 291 293 295 298 300 303 305 307 308 309 309 308 307 307
246 247 249 250 251 253 255 257 260 265 268 271 275 277 277 274 271 270 272 274 276 277 276 273 275 280 284 287 290 292 294 296 299 301 305 307 308 307 307 305 305 304 304
247 249 250 250 251 252 255 257 261 265 269 272 276 277 276 274 269 267 269 271 274 278 277 275 277 280 283 286 291 294 296 298 300 302 305 306 307 307 306 304 302 301 301
247 249 250 249 250 252 255 258 261 265 270 273 276 276 274 272 269 267 266 269 274 278 278 276 278 281 284 286 289 293 296 298 299 301 304 305 305 304 303 302 300 299 298
246 248 249 249 249 252 255 259 263 266 269 270 271 272 272 270 270 270 268 272 277 279 280 279 280 281 284 286 289 292 295 297 299 301 302 303 303 302 301 300 300 299 299
246 248 249 249 250 253 255 258 262 265 267 268 270 271 272 271 271 271 270 272 276 278 278 279 279 280 282 285 288 291 293 296 298 299 300 301 299 298 299 299 299 299 299
247 249 250 250 250 253 257 260 262 263 265 268 269 270 272 271 271 271 271 273 275 277 278 278 279 281 283 286 288 290 292 294 295 296 297 296 295 296 296 296 297 298 297
247 250 251 252 252 255 259 262 263 263 265 267 268 270 273 272 272 272 272 274 276 278 279 279 280 281 283 286 287 289 292 293 293 293 293 293 293 293 294 294 295 295 292
Height
5686 5687 5687 5687 5686 5685 5684 5683 5681 5679 5677 5676 5674 5672 5670 5668 5666 5663 5661 5658 5656 5653 5650 5647 5644 5640 5637 5634 5630 5627 5624 5621 5619 5617 5614 5611 5607 5605 5603 5602 5600 5597 5595
5677 5677 5677 5677 5677 5676 5675 5673 5672 5670 5668 5666 5665 5663 5661 5659 5657 5655 5652 5650 5647 5645 5642 5639 5636 5633 5629 5626 5623 5620 5617 5614 5611 5609 5607 5604 5601 5599 5597 5595 5593 5590 5587
5667 5668 5668 5668 5667 5667 5665 5664 5662 5660 5659 5657 5655 5654 5652 5650 5648 5646 5644 5642 5640 5637 5634 5632 5628 5625 5622 5619 5616 5613 5610 5607 5604 5602 5600 5598 5595 5593 5591 5589 5586 5584 5581
5658 5658 5659 5659 5658 5657 5656 5654 5653 5651 5650 5648 5647 5645 5644 5642 5640 5638 5636 5634 5632 5629 5627 5624 5621 5618 5615 5612 5609 5606 5603 5601 5598 5596 5594 5592 5590 5587 5585 5583 5581 5578 5575
5649 5650 5650 5649 5649 5648 5647 5646 5644 5643 5641 5640 5638 5637 5635 5634 5632 5630 5628 5626 5624 5622 5619 5617 5614 5611 5608 5605 5602 5600 5597 5595 5592 5590 5588 5586 5584 5582 5580 5577 5575 5572 5569
5640 5641 5641 5641 5640 5640 5639 5637 5636 5635 5634 5632 5630 5629 5627 5625 5624 5622 5620 5618 5617 5615 5613 5610 5608 5605 5602 5599 5596 5593 5591 5588 5586 5584 5582 5580 5578 5576 5574 5572 5569 5567 5564
5632 5632 5632 5632 5632 5632 5631 5630 5629 5628 5626 5625 5623 5621 5619 5617 5615 5614 5612 5611 5609 5607 5605 5603 5601 5598 5596 5593 5590 5588 5585 5582 5580 5578 5576 5575 5573 5571 5569 5567 5564 5561 5558
5624 5624 5624 5625 5625 5624 5623 5623 5622 5621 5619 5618 5616 5614 5612 5611 5609 5607 5605 5604 5602 5600 5598 5596 5594 5592 5589 5587 5584 5582 5579 5577 5574 5573 5572 5570 5568 5566 5564 5562 5559 5557 5554
5615 5616 5616 5617 5617 5617 5617 5616 5615 5614 5612 5611 5609 5607 5606 5604 5602 5601 5599 5597 5596 5593 5591 5589 5587 5585 5583 5580 5578 5576 5574 5572 5570 5568 5567 5566 5564 5562 5559 5557 5554 5552 5550
5607 5608 5609 5609 5610 5610 5609 5609 5608 5607 5606 5604 5603 5601 5600 5598 5596 5594 5593 5591 5589 5587 5585 5583 5581 5579 5577 5574 5573 5571 5569 5567 5566 5564 5563 5561 5560 5557 5555 5552 5550 5547 5544
5599 5600 5601 5602 5602 5602 5602 5602 5601 5600 5599 5598 5597 5595 5593 5592 5590 5588 5587 5586 5584 5582 5579 5578 5575 5573 5571 5570 5568 5566 5565 5563 5562 5561 5559 5557 5555 5553 5550 5548 5545 5542 5538
5591 5592 5593 5594 5594 5595 5595 5594 5594 5593 5593 5591 5590 5588 5587 5586 5584 5582 5581 5580 5578 5576 5574 5572 5570 5568 5566 5565 5563 5562 5560 5559 5558 5557 5555 5553 5551 5549 5546 5543 5540 5537 5533
5583 5585 5586 5587 5587 5587 5587 5587 5587 5586 5586 5585 5584 5582 5581 5580 5578 5576 5575 5574 5572 5571 5569 5567 5565 5564 5562 5560 5559 5557 5556 5555 5554 5553 5551 5549 5547 5544 5542 5539 5535 5532 5528
5575 5577 5578 5579 5580 5580 5580 5580 5580 5580 5579 5578 5577 5576 5575 5574 5573 5571 5570 5568 5567 5565 5564 5562 5560 5559 5557 5556 5554 5553 5552 5551 5550 5548 5546 5545 5542 5540 5537 5534 5530 5526 5523
5567 5569 5570 5572 5573 5574 5574 5574 5574 5573 5573 5572 5571 5570 5569 5568 5567 5566 5564 5563 5561 5560 5559 5557 5555 5554 5553 5551 5550 5549 5548 5546 5545 5543 5541 5540 5537 5535 5532 5528 5525 5521 5517
5560 5561 5563 5564 5566 5567 5567 5567 5567 5566 5566 5565 5564 5563 5563 5562 5561 5560 5559 5557 5556 5555 5554 5552 5551 5549 5548 5547 5546 5544 5543 5542 5540 5539 5537 5534 5532 5530 5527 5523 5519 5515 5512
5552 5554 5556 5557 5559 5559 5560 5560 5560 5560 5559 5558 5558 5557 5556 5555 5555 5554 5553 5551 5550 5549 5548 5547 5546 5544 5543 5542 5541 5540 5539 5537 5536 5534 5532 5529 5527 5524 5521 5517 5514 5510 5507
5545 5546 5548 5550 5551 5552 5553 5554 5554 5553 5553 5552 5552 5551 5550 5549 5548 5548 5547 5545 5544 5543 5543 5542 5541 5540 5539 5538 5537 5536 5534 5533 5531 5529 5526 5524 5521 5518 5515 5512 5508 5505 5502
5537 5539 5540 5542 5543 5545 5546 5547 5547 5547 5547 5546 5545 5544 5544 5543 5542 5541 5540 5539 5539 5538 5537 5537 5536 5535 5534 5533 5532 5531 5529 5528 5526 5523 5521 5519 5516 5513 5509 5506 5503 5500 5498
5530 5532 5533 5534 5536 5537 5538 5539 5540 5540 5540 5540 5539 5538 5537 5536 5535 5535 5534 5534 5534 5533 5532 5532 5531 5531 5530 5528 5527 5526 5524 5523 5520 5518 5516 5513 5510 5506 5504 5500 5498 5495 5493
5523 5525 5526 5527 5529 5530 5531 5532 5533 5533 5533 5532 5532 5531 5530 5529 5529 5528 5528 5528 5528 5528 5527 5526 5526 5525 5524 5523 5522 5520 5519 5517 5515 5512 5510 5507 5504 5501 5498 5495 5492 5490 5488
5516 5518 5519 5520 5522 5523 5524 5525 5525 5526 5526 5525 5524 5523 5523 5522 5522 5522 5523 5523 5522 5522 5521 5520 5520 5519 5518 5517 5516 5515 5513 5511 5509 5506 5504 5501 5498 5494 5492 5489 5487 5485 5483
5510 5511 5512 5514 5515 5516 5517 5518 5518 5519 5518 5518 5517 5517 5516 5516 5516 5516 5516 5516 5516 5516 5515 5514 5514 5513 5512 5511 5510 5508 5507 5505 5502 5500 5497 5494 5491 5489 5486 5484 5482 5480 5478
5503 5505 5506 5507 5509 5510 5511 5511 5512 5512 5512 5511 5511 5510 5510 5510 5510 5510 5510 5510 5509 5509 5508 5508 5507 5506 5505 5504 5503 5501 5499 5498 5495 5493 5491 5488 5485 5483 5481 5479 5477 5476 5474
5497 5498 5500 5501 5502 5503 5504 5504 5505 5505 5505 5505 5504 5504 5504 5504 5504 5503 5503 5503 5502 5502 5501 5501 5500 5499 5498 5496 5495 5494 5492 5490 5488 5486 5484 5482 5480 5478 5476 5475 5473 5472 5470
5490 5491 5493 5494 5495 5496 5497 5498 5498 5498 5498 5498 5498 5498 5498 5497 5497 5496 5496 5496 5495 5495 5494 5493 5492 5491 5490 5489 5488 5486 5485 5483 5481 5479 5477 5476 5474 5473 5471 5470 5468 5467 5466